Weather in Chernovo

Russia / Yaroslavl Oblast     58°04′58″N   40°34′36″E
temp.,
°C
wind,
m/s
gust,
m/s
humid.,
%
clouds,
%
prec.,
mm/h
press.,
hPa
HPBL,
m
6 may, thu
thu600:00+4ese2393100 0.3 1008119
03:00+4ese379491 0.4 1008305
06:00+5se2495100 0.0 1008129
09:00+9se5888100 0.0 1007536
12:00+15s61170100 0.1 10051268
15:00+16s81564100 0.9 10031909
18:00+13s8167090 0.6 10021497
21:00+11ssw81577100 0.8 10021482
7 may, fri
fri700:00+7wsw5108786 0.8 1005865
03:00+6ssw4108989 0.8 1006418
06:00+6sw5990100 0.0 1007726
09:00+8sw597170 0.0 10091067
12:00+11sw695471 0.6 10101933
15:00+13wsw6114385 0.8 10112511
18:00+12ssw59514 0.0 10111487
21:00+7ssw3107842 0.1 1013227
8 may, sat
sat800:00+7s31178100 0.0 1013328
03:00+7sse41277100 0.0 1013361
06:00+8sse51568100 0.0 1011610
09:00+11sse61362100 0.0 1010955
12:00+13sse71359100 0.0 10081697
15:00+10se81785100 3.8 10051493
18:00+9sse71591100 1.3 1003924
21:00+10sse51298100 5.4 1000675
9 may, sun
sun900:00+8sw51391100 3.9 1001766
03:00+5sw71188100 4.0 1003966
06:00+4sw71293100 0.0 10061210
09:00+5wsw71287100 0.1 10091213
12:00+8w61077100 0.1 10131208
15:00+10wnw585983 0.2 10171670
18:00+10wnw475621 0.0 10191246
21:00+5wnw35735 0.0 102272
10 may, mon
mon1000:00+3wnw22831 0.0 102438
03:00+2wnw22874 0.0 102614
06:00+4sw12776 0.0 102874
09:00+10ssw33558 0.0 1028585
12:00+13sw444197 0.0 10281588
15:00+14sw464247 0.0 10271827
18:00+14sw365415 0.0 1027603
21:00+8sw377634 0.0 1028106